Weather observations for the past three days for
Bremerton, Bremerton National Airport
Imperial (Metric)
Date Time (pdt) Wind (mph) Vis. (mi.) Weather Sky Cond. Temperature (ºF) Relative Humidity Wind Chill (°F) Heat Index (°F) Pressure Precipitation (in)
Air Dwpt 6 hour altimeter (in) sea level (mb) 1 hr 3 hr 6 hr
Max. Min.
14 05:56 Calm 10.00 Fair CLR 55.9 54 93% 30.02 1016.8
14 04:56 Calm 10.00 Fair CLR 57 54 69.1 55.9 90% 30.01 1016.4
14 03:56 Calm 10.00 Fair CLR 57 53.1 87% 30 1016.0
14 02:56 Calm 10.00 Fair CLR 60.1 55 84% 29.99 1015.8
14 01:56 Calm 10.00 Fair CLR 61 55 81% 30 1015.8
14 00:56 Calm 10.00 Fair CLR 63 55 76% 29.99 1015.7
13 23:56 SE 5 10.00 Fair CLR 66.9 55 66% 30 1015.8
13 22:56 Calm 10.00 Fair CLR 68 54 88 66.9 61% 29.99 1015.6
13 21:56 NE 3 10.00 Fair CLR 72 53.1 52% 29.99 1015.6
13 20:56 Calm 10.00 Fair CLR 77 52 42% 78 29.98 1015.2
13 19:56 E 6 10.00 Fair CLR 82 53.1 37% 81 29.97 1014.8
13 18:56 NE 7 10.00 Fair CLR 84.9 55 36% 84 29.97 1015.0
13 17:56 E 8 10.00 Fair CLR 87.1 54 32% 85 29.97 1015.1
13 16:56 NE 8 10.00 Fair CLR 88 55 88 77 33% 86 29.98 1015.3
13 15:56 Vrbl 7 10.00 Fair CLR 88 55.9 34% 86 29.99 1015.8
13 14:56 NE 8 10.00 Fair CLR 86 54 33% 84 30.01 1016.1
13 13:56 NE 8 10.00 Fair CLR 84.9 54 35% 83 30.02 1016.5
13 12:56 Vrbl 6 10.00 Fair CLR 82 55 40% 81 30.02 1016.8
13 11:56 NE 8 10.00 Fair CLR 79 55.9 45% 80 30.03 1017.1
13 10:56 E 8 10.00 Fair CLR 78.1 57 78.1 52 48% 79 30.04 1017.2
13 09:56 NE 9 10.00 Fair CLR 75 55 50% 78 30.04 1017.5
13 08:56 NE 7 10.00 Fair CLR 73 57 57% 30.04 1017.4
13 07:56 E 3 10.00 Fair CLR 66.9 57 71% 30.05 1017.6
13 06:56 Calm 10.00 Fair CLR 60.1 57 90% 30.05 1017.6
13 05:56 Calm 10.00 Fair CLR 53.1 52 96% 30.04 1017.4
13 04:56 Calm 10.00 Fair CLR 55.9 54 64.9 54 93% 30.03 1017.2
13 03:56 Calm 10.00 Fair CLR 54 53.1 97% 30.02 1016.7
13 02:56 Calm 10.00 Fair CLR 57 54 90% 30.03 1016.9
13 01:56 Calm 10.00 Fair CLR 57.9 53.1 84% 30.02 1016.9
13 00:56 Calm 10.00 Fair CLR 59 53.1 81% 30.03 1016.9
12 23:56 Calm 10.00 Fair CLR 60.1 55 84% 30.03 1016.9
12 22:56 SE 3 10.00 Fair CLR 64.9 57 84 62.1 76% 30.03 1016.8
12 21:56 Calm 10.00 Fair CLR 64 57 78% 30.02 1016.8
12 20:56 E 3 10.00 Fair CLR 75 57 54% 78 30.01 1016.4
12 19:56 E 7 10.00 Fair CLR 79 57 47% 80 30.02 1016.4
12 18:56 NE 7 10.00 Fair CLR 82 57 43% 82 30.02 1016.5
12 17:56 E 6 10.00 Fair CLR 82.9 57.9 43% 83 30.02 1016.6
12 16:56 Vrbl 6 10.00 Fair CLR 84 57.9 86 73 41% 83 30.03 1016.9
12 15:56 NE 8 10.00 Fair CLR 84 57.9 41% 83 30.04 1017.3
12 14:56 Vrbl 5 10.00 Fair CLR 82.9 57.9 43% 83 30.05 1017.7
12 13:56 Vrbl 3 10.00 Fair CLR 81 57.9 45% 81 30.06 1018.2
12 12:56 Vrbl 3 10.00 Fair CLR 79 57.9 49% 80 30.08 1018.7
12 11:56 Calm 10.00 Fair CLR 75 55.9 52% 78 30.1 1019.3
12 10:56 NE 3 10.00 Fair CLR 73 55.9 73 48.9 55% 30.11 1019.6
12 09:56 Vrbl 5 10.00 Fair CLR 66.9 55.9 68% 30.12 1020.1
12 08:56 SW 5 10.00 Fair CLR 62.1 55.9 80% 30.13 1020.4
12 07:56 SW 5 10.00 Fair CLR 57.9 55 90% 30.13 1020.5
12 06:56 S 3 10.00 Fair CLR 54 53.1 97% 30.13 1020.4
12 05:56 Calm 10.00 Fair CLR 48.9 48.9 100% 30.12 1020.3
12 04:56 Calm 10.00 Fair CLR 52 51.1 62.1 51.1 97% 30.11 1019.9
12 03:56 Calm 10.00 Fair CLR 52 51.1 97% 30.1 1019.5
12 02:56 Calm 10.00 Fair CLR 53.1 51.1 93% 30.1 1019.3
12 01:56 Calm 10.00 Fair CLR 53.1 53.1 100% 30.1 1019.3
12 00:56 Calm 10.00 Fair CLR 55.9 52 87% 30.1 1019.5
11 23:56 Calm 10.00 Fair CLR 59 54 83% 30.1 1019.4
11 22:56 Calm 10.00 Fair CLR 62.1 54 82 61 75% 30.1 1019.2
11 21:56 SE 3 10.00 Fair CLR 64.9 54 68% 30.09 1019.1
11 20:56 Calm 10.00 Fair CLR 72 53.1 52% 30.09 1018.8
11 19:56 NE 9 10.00 Fair CLR 75.9 55 48% 78 30.08 1018.7
11 18:56 NE 10 10.00 Fair CLR 79 55 44% 80 30.08 1018.7
11 17:56 NE 13 10.00 Fair CLR 80.1 55 42% 80 30.08 1018.7
11 16:56 NE 9 10.00 Fair CLR 82 55.9 84 73.9 41% 82 30.09 1018.9
11 15:56 NE 10 10.00 Fair CLR 81 55.9 42% 81 30.1 1019.3
11 14:56 N 10 10.00 Fair CLR 82 55.9 41% 82 30.11 1019.6
11 13:56 NW 8 10.00 Fair CLR 82.9 57 41% 82 30.12 1020.0
11 12:56 Vrbl 5 10.00 Fair CLR 78.1 55.9 47% 79 30.14 1020.7
11 11:56 Vrbl 5 10.00 Fair CLR 77 57 50% 79 30.15 1021.0
11 10:56 W 5 10.00 Fair CLR 73.9 55.9 73.9 52 54% 30.16 1021.4
11 09:56 Vrbl 3 10.00 Fair CLR 69.1 54 59% 30.16 1021.4
11 08:56 NE 5 10.00 Fair CLR 66 55 68% 30.16 1021.5
11 07:56 Calm 10.00 Fair CLR 62.1 55.9 80% 30.16 1021.4
11 06:56 SE 3 10.00 Fair CLR 57.9 55.9 93% 30.14 1020.9
Date Time (pdt) Wind (mph) Vis. (mi.) Weather Sky Cond. Air Dwpt Max. Min. Relative Humidity Wind Chill (°F) Heat Index (°F) altimeter (in) sea level (mb) 1 hr 3 hr 6 hr
6 hour
Temperature (ºF) Pressure Precipitation (in)